Weather History for LTBA - December, 2013

Change the Weather History Date:

Friday, December 27, 2013

  Actual Average Record
Temperature  
Mean Temperature 52 °F -  
Max Temperature 56 °F 46 °F 60 °F (2000)
Min Temperature 49 °F 37 °F 30 °F (2006)
Degree Days  
Heating Degree Days 12    
Growing Degree Days 2 (Base 50)    
Moisture  
Dew Point 36 °F    
Average Humidity 50    
Maximum Humidity 66    
Minimum Humidity 32    
Precipitation  
Precipitation 0.00 in - - ()
Sea Level Pressure  
Sea Level Pressure 30.05 in    
Wind  
Wind Speed 8 mph ()    
Max Wind Speed 17 mph    
Max Gust Speed -    
Visibility 6.1 miles    
Events      
Averages and records for this station are not official NWS values.
T = Trace of Precipitation, MM = Missing Value Source: Averaged Metar Reports

Daily Weather History Graph

Daily Weather History Graph

Search for Another Location

Airport or City:

Trip Planner

Search our weather history database for the weather conditions in past years. The results will help you decide how hot, cold, wet, or windy it might be!

Date:

Astronomy

Dec. 27, 2013 Rise Set
Actual Time 7:28 AM EET 4:43 PM EET
Civil Twilight 6:57 AM EET 5:14 PM EET
Nautical Twilight 6:22 AM EET 5:48 PM EET
Astronomical Twilight 5:49 AM EET 6:22 PM EET
Moon 1:37 AM EET (12/27) 12:43 PM EET (12/27)
Length of Visible Light 10h 16m
Length of Day
9h 14m
Waning Crescent, 31% of the Moon is Illuminated
Dec 27
Waning Crescent
Jan 1
New
Jan 8
First Quarter
Jan 16
Full
Jan 24
Last Quarter

Hourly Weather History & Observations

Time (EET) Temp. Dew Point Humidity Pressure Visibility Wind Dir Wind Speed Gust Speed Precip Events Conditions
12:20 AM 51.8 °F 35.6 °F 54% 30.04 in - East 9.2 mph - N/A   Clear
12:50 AM 51.8 °F 37.4 °F 58% 30.04 in - East 12.7 mph - N/A   Clear
1:20 AM 53.6 °F 35.6 °F 51% 30.04 in - ESE 10.4 mph - N/A   Clear
1:50 AM 50.0 °F 35.6 °F 58% 30.04 in - ESE 10.4 mph - N/A   Clear
2:00 AM 51 °F 36 °F 45% 30.05 in 6 mi ESE 10.4 mph - -  
2:20 AM 51.8 °F 35.6 °F 54% 30.04 in - ESE 10.4 mph - N/A   Clear
2:50 AM 50.0 °F 35.6 °F 58% 30.04 in - East 9.2 mph - N/A   Clear
3:20 AM 50.0 °F 37.4 °F 62% 30.04 in - East 4.6 mph - N/A   Clear
3:50 AM 50.0 °F 39.2 °F 66% 30.04 in - East 3.5 mph - N/A   Clear
4:20 AM 50.0 °F 39.2 °F 66% 30.04 in - East 4.6 mph - N/A   Clear
4:50 AM 50.0 °F 37.4 °F 62% 30.04 in - East 5.8 mph - N/A   Clear
5:00 AM 50 °F 36 °F 48% 30.05 in 6 mi East 5.8 mph - -  
5:20 AM 50.0 °F 37.4 °F 62% 30.04 in - East 8.1 mph - N/A   Clear
5:50 AM 50.0 °F 37.4 °F 62% 30.04 in - East 9.2 mph - N/A   Clear
6:20 AM 51.8 °F 37.4 °F 58% 30.04 in 6.2 mi East 11.5 mph - N/A   Mostly Cloudy
6:50 AM 51.8 °F 37.4 °F 58% 30.04 in - East 11.5 mph - N/A   Clear
7:20 AM 53.6 °F 35.6 °F 51% 30.04 in - East 11.5 mph - N/A   Clear
7:50 AM 51.8 °F 37.4 °F 58% 30.04 in - East 13.8 mph - N/A   Clear
8:00 AM 52 °F 37 °F 44% 30.06 in 6 mi East 13.8 mph - -  
8:20 AM 53.6 °F 37.4 °F 54% 30.04 in - East 17.3 mph - N/A   Clear
8:50 AM 51.8 °F 37.4 °F 58% 30.04 in - East 11.5 mph - N/A   Clear
9:20 AM 53.6 °F 37.4 °F 54% 30.06 in - East 6.9 mph - N/A   Clear
9:50 AM 55.4 °F 39.2 °F 54% 30.06 in - East 9.2 mph - N/A   Clear
10:20 AM 53.6 °F 37.4 °F 54% 30.06 in - East 11.5 mph - N/A   Clear
10:50 AM 53.6 °F 35.6 °F 51% 30.06 in - East 10.4 mph - N/A   Clear
11:00 AM 54 °F 36 °F 39% 30.08 in 6 mi East 10.4 mph - -   Clear
11:20 AM 55.4 °F 37.4 °F 51% 30.06 in - East 8.1 mph - N/A   Clear
11:50 AM 53.6 °F 37.4 °F 54% 30.06 in - East 8.1 mph - N/A   Clear
12:20 PM 55.4 °F 35.6 °F 47% 30.04 in - East 6.9 mph - N/A   Clear
12:50 PM 57.2 °F 35.6 °F 44% 30.04 in - East 10.4 mph - N/A   Clear
1:20 PM 55.4 °F 35.6 °F 47% 30.04 in - East 8.1 mph - N/A   Clear
1:50 PM 55.4 °F 37.4 °F 51% 30.04 in - East 8.1 mph - N/A   Clear
2:00 PM 55 °F 37 °F 38% 30.05 in 6 mi East 8.1 mph - -   Partly Cloudy
2:20 PM 55.4 °F 35.6 °F 47% 30.04 in - East 6.9 mph - N/A   Clear
2:50 PM 57.2 °F 33.8 °F 41% 30.04 in 6.2 mi East 5.8 mph - N/A   Mostly Cloudy
3:20 PM 57.2 °F 35.6 °F 44% 30.04 in 6.2 mi East 5.8 mph - N/A   Mostly Cloudy
3:50 PM 55.4 °F 35.6 °F 47% 30.04 in 6.2 mi East 8.1 mph - N/A   Mostly Cloudy
4:20 PM 55.4 °F 35.6 °F 47% 30.04 in 6.2 mi East 8.1 mph - N/A   Mostly Cloudy
4:50 PM 55.4 °F 33.8 °F 44% 30.04 in - East 8.1 mph - N/A   Clear
5:00 PM 56 °F 35 °F 32% 30.06 in 6 mi East 8.1 mph - -   Partly Cloudy
5:20 PM 55.4 °F 35.6 °F 47% 30.04 in - East 8.1 mph - N/A   Clear
5:50 PM 55.4 °F 35.6 °F 47% 30.04 in - East 8.1 mph - N/A   Clear
6:20 PM 55.4 °F 35.6 °F 47% 30.06 in - East 6.9 mph - N/A   Clear
6:50 PM 55.4 °F 35.6 °F 47% 30.06 in - East 9.2 mph - N/A   Clear
7:20 PM 55.4 °F 35.6 °F 47% 30.06 in - East 8.1 mph - N/A   Clear
7:50 PM 55.4 °F 35.6 °F 47% 30.06 in - East 9.2 mph - N/A   Clear
8:00 PM 55 °F 35 °F 34% 30.07 in 6 mi East 9.2 mph - -   Mostly Cloudy
8:20 PM 55.4 °F 35.6 °F 47% 30.06 in - East 9.2 mph - N/A   Clear
8:50 PM 55.4 °F 35.6 °F 47% 30.06 in - East 6.9 mph - N/A   Clear
9:20 PM 55.4 °F 33.8 °F 44% 30.06 in - East 8.1 mph - N/A   Clear
9:50 PM 55.4 °F 33.8 °F 44% 30.06 in - East 9.2 mph - N/A   Clear
10:20 PM 55.4 °F 32.0 °F 41% 30.06 in - ENE 6.9 mph - N/A   Clear
10:50 PM 53.6 °F 33.8 °F 47% 30.06 in - East 6.9 mph - N/A   Clear
11:00 PM 54 °F 34 °F 34% 30.07 in 6 mi East 6.9 mph - -   Mostly Cloudy
11:20 PM 55.4 °F 32.0 °F 41% 30.06 in - East 9.2 mph - N/A   Clear
11:50 PM 55.4 °F 32.0 °F 41% 30.06 in - East 9.2 mph - N/A   Clear